MMSD

Details ICAO MMSD (SJD)
Name Los Cabos Intl
Region Mexico
Timezone America/Mazatlan (UTC-6.0)
Plans Departing 259
Arriving 382
Stats Elevation 374 ft / 114 m (AMSL)
Location 23.152100° -109.721000°
Runways 1
Magnetic Variation 8.200° E
Sunrise 2019-05-25 12:35:39 UTC / 2019-05-25 06:35:39 Local
Sunset 2019-05-26 01:58:53 UTC / 2019-05-25 19:58:53 Local
Advertisement - Login to hide

Runways

ID Width Length Bearing (true/mag) Surface Threshold Overrun Markings Lighting
16 148 ft / 45 m 9,853 ft / 3,003 m 173.95° / 165.75° ASPHALT 0 ft / 0 m 197 ft / 60 m APP EDGE THRESHOLD
34 148 ft / 45 m 9,853 ft / 3,003 m 353.95° / 345.75° ASPHALT 0 ft / 0 m 200 ft / 61 m APP EDGE THRESHOLD

Map

Weather


0- 5 10 15 20 25 30 35+ Temperature / °C

Clouds and Precipitation
Forecast for 2019-05-25 06:00 UTC. Updated 5 hours ago

Ground ~20,000 ft ~40,000 ft Winds

METAR

Not found

TAF

TAF MMSD 250532Z 2506/2606 30005KT P6SM SKC FM251800 12015KT P6SM SKC FM260400 03005KT 6SM HZ SKC

Frequencies

Recorded 127.60 MHz ATIS
Approach 120.90 MHz SAN JOSE APP
Tower 118.90 MHz SAN JOSE TWR
Warning: Do not use this data for real-world aviation or navigation. No guarantee of current accuracy is given.